Regional Weather Roundup
Issued by NWS

Home | Current Version | Previous Version | Text Only | Print | Product List | Glossary Off
Versions: 1 2 3 4 5 6 7 8 9 10 11 12 13 14 15 16 17 18 19 20 21 22 23 24 25 26 27 28 29 30 31 32 33 34 35 36 37 38 39 40 41 42 43 44 45 46 47 48 49 50

000
ASUS43 KTOP 261108
RWRKS

WEATHER ROUNDUP FOR KANSAS
NATIONAL WEATHER SERVICE GOODLAND KS
600 AM CDT FRI MAY 26 2017

NOTE:  "FAIR" INDICATES FEW OR NO CLOUDS BELOW 12,000 FEET WITH NO
SIGNIFICANT WEATHER AND/OR OBSTRUCTIONS TO VISIBILITY.

KSZ001>006-013>018-027>032-041>047-261200-
NORTHWEST KANSAS

CITY           SKY/WX    TMP DP  RH WIND       PRES   REMARKS
GOODLAND       LGT RAIN  54  50  86 NW22      29.86S
HAYS           CLEAR     53  52  96 NW8       29.74R
HILL CITY      PTCLDY    60  55  83 N13       29.73F
RUSSELL        CLEAR     55  53  93 NW7       29.71R
$$

KSZ061>065-074>080-084>089-261200-
SOUTHWEST KANSAS

CITY           SKY/WX    TMP DP  RH WIND       PRES   REMARKS
DODGE CITY     CLEAR     55  52  89 N9        29.75R
ELKHART          N/A     53  41  64 NW9         N/A
GARDEN CITY    CLEAR     53  49  86 NW9       29.79R
GREAT BEND     CLEAR     57  55  93 NW6       29.72R
LIBERAL        CLEAR     54  52  93 NW9       29.81R
PRATT          CLEAR     57  55  94 N14G21    29.70R
$$

KSZ066>073-081>083-090>101-261200-
SOUTHEAST KANSAS

CITY           SKY/WX    TMP DP  RH WIND       PRES   REMARKS
CHANUTE        PTCLDY    65  58  78 E8        29.64R
COFFEYVILLE    PTCLDY    65  64  97 E8        29.60R
HUTCHINSON     CLEAR     62  60  93 N9        29.67R
MEDICINE LODGE   N/A     61  58  90 N5        29.64R
NEWTON         CLEAR     61  59  93 N10       29.66R
PARSONS        PTCLDY    65  60  84 VRB5      29.65R
WICHITA INTL   PTCLDY    64  60  87 E3        29.62R
WICHITA JABRA  CLEAR     62  59  90 SE5       29.62R
WICHITA MCCONL CLEAR     64  59  82 E3        29.62R
WINFIELD       CLOUDY    64  60  87 E9        29.61S
$$

KSZ007>012-019>026-033>040-048>060-102>105-261200-
NORTHEAST KANSAS

CITY           SKY/WX    TMP DP  RH WIND       PRES   REMARKS
CONCORDIA      CLEAR     58  58 100 NW7       29.69R
EMPORIA        CLEAR     61  59  93 N3        29.64R
LAWRENCE       CLEAR     59  59 100 NW8       29.64R
MANHATTAN      CLEAR     57  57 100 CALM      29.66R FOG
MARYSVILLE     FOG       57  57 100 CALM      29.69R VSB 1/4
OLATHE IND     PTCLDY    63  60  90 S8        29.63R
OLATHE EXE     MOCLDY    62  61  96 S12       29.62R
SALINA         CLEAR     61  58  90 NW7       29.68R
TOPEKA BILLARD CLEAR     62  61  96 NW7       29.65R
TOPEKA FORBES  CLEAR     62  59  90 N7        29.65R
$$



USA.gov is the U.S. government's official web portal to all federal, state and local government web resources and services.